カタログに戻る

CZ-6A DEB

運用中PO
NORAD 54569·DEBRIS·🇨🇳 China

打ち上げ Nov 11, 2022 から Taiyuan Satellite Launch Center

Loading…

次のパス (今後24時間)

TLE

最新Source: Space-Track

元期: Sep 14, 2026, 05:42 UTC

1 54569U 22151LV  26257.23750950  .00104328  00000-0  40856-2 0  9996
2 54569  98.6212 357.9863 0026425 274.7414  85.0803 15.25037069205018

AllMySatでCZ-6A DEBをリアルタイム追跡

Download on the App Store